User: anonymous   Login
Location: Caltech
(34.1382°N, 118.1253°W)
Time: 20:05:41
(UTC-07:00)
Language:

Cosmos 2360 Rocket - Orbit

View from above orbital plane
View from above orbital plane
View from above satellite
View from above satellite

Ground track
Ground track

The orbit data is extracted from the following two-line orbital elements,

1 25407U 98045B   15210.96854072 -.00000245  00000-0 -10048-3 0  9993
2 25407 071.0109 047.6516 0007930 191.9396 168.1541 14.15718856878773
Epoch (UTC): 29 July 2015 23:14:41
Eccentricity: 0.0007930
inclination: 71.0109°
perigee height: 834 km
apogee height: 845 km
right ascension of ascending node: 47.6516°
argument of perigee: 191.9396°
revolutions per day: 14.15718856
mean anomaly at epoch: 168.1541°
orbit number at epoch: 87877

The dashed part of the orbit path shows where the satellite is in the earth's shadow,  

DLR